Weather History for PACZ - January, 2014

Change the Weather History Date:

Thursday, January 16, 2014

  Actual Average Record
Temperature  
Mean Temperature 4 °F -  
Max Temperature 6 °F - - ()
Min Temperature 1 °F - - ()
Degree Days  
Heating Degree Days 62    
Moisture  
Dew Point 2 °F    
Average Humidity 89    
Maximum Humidity 92    
Minimum Humidity 85    
Precipitation  
Precipitation 0.00 in - - ()
Sea Level Pressure  
Sea Level Pressure 29.48 in    
Wind  
Wind Speed 43 mph (NE)    
Max Wind Speed 52 mph    
Max Gust Speed 61 mph    
T = Trace of Precipitation, MM = Missing Value Source: NWS Daily Summary

Daily Weather History Graph

Daily Weather History Graph

Search for Another Location

Airport or City:

Trip Planner

Search our weather history database for the weather conditions in past years. The results will help you decide how hot, cold, wet, or windy it might be!

Date:

Astronomy

Jan. 16, 2014 Rise Set
Actual Time 11:04 AM AKST 5:24 PM AKST
Civil Twilight 10:06 AM AKST 6:21 PM AKST
Nautical Twilight 9:09 AM AKST 7:19 PM AKST
Astronomical Twilight 8:16 AM AKST 8:12 PM AKST
Moon 7:05 PM AKST (1/16) 10:31 AM AKST (1/16)
Length of Visible Light 8h 15m
Length of Day
6h 20m
Full, 100% of the Moon is Illuminated
Jan 16
Full
Jan 23
Last Quarter
Jan 30
New
Feb 6
First Quarter
Feb 14
Full

Hourly Weather History & Observations

Time (AKST) Temp. Windchill Dew Point Humidity Pressure Visibility Wind Dir Wind Speed Gust Speed Precip Events Conditions
12:12 AM 3.2 °F -25.2 °F -0.4 °F 85% 29.58 in 1.5 mi NE 43.7 mph 49.5 mph N/A Snow Light Snow
12:27 AM 3.2 °F -24.9 °F -0.4 °F 85% 29.58 in 1.2 mi NE 42.6 mph 49.5 mph N/A Snow Light Snow
12:42 AM 1.4 °F -26.3 °F -0.4 °F 92% 29.59 in 0.5 mi NE 38.0 mph 44.9 mph N/A Snow Light Snow
12:55 AM 2.1 °F -25.6 °F -0.8 °F 88% 29.58 in 0.5 mi NE 39.1 mph 47.2 mph N/A Snow Light Snow
1:27 AM 1.4 °F -27.4 °F -0.4 °F 92% 29.57 in 0.8 mi NE 42.6 mph 48.3 mph N/A Snow Light Snow
1:42 AM 3.2 °F -24.4 °F -0.4 °F 85% 29.56 in 0.2 mi NE 40.3 mph 48.3 mph N/A Snow Snow
1:55 AM 2.3 °F -26.4 °F -0.6 °F 88% 29.55 in 0.2 mi NE 43.7 mph 50.6 mph N/A Snow Heavy Snow
2:27 AM 3.2 °F -24.6 °F -0.4 °F 85% 29.55 in 0.2 mi NE 41.4 mph 50.6 mph N/A Snow Heavy Snow
2:42 AM 3.2 °F -23.5 °F -0.4 °F 85% 29.55 in 0.2 mi NE 36.8 mph 46.0 mph N/A Snow Heavy Snow
2:55 AM 2.7 °F -25.4 °F -0.0 °F 88% 29.53 in 0.2 mi NE 41.4 mph 46.0 mph N/A Snow Heavy Snow
3:55 AM 2.5 °F -25.9 °F -0.4 °F 88% 29.50 in 0.2 mi NE 42.6 mph 49.5 mph N/A Snow Heavy Snow
4:12 AM 3.2 °F -26.0 °F -0.4 °F 85% 29.49 in 0.5 mi NE 47.2 mph 52.9 mph N/A Snow Snow
4:42 AM 3.2 °F -25.4 °F -0.4 °F 85% 29.47 in 0.5 mi NE 44.9 mph 55.2 mph N/A Snow Light Snow
4:55 AM 3.2 °F -25.2 °F 0.1 °F 87% 29.48 in 0.5 mi NE 43.7 mph 54.1 mph N/A Snow Light Snow
5:12 AM 3.2 °F -25.2 °F -0.4 °F 85% 29.47 in 0.2 mi NE 43.7 mph 50.6 mph N/A Snow Snow
5:27 AM 3.2 °F -26.0 °F 1.4 °F 92% 29.47 in 0.2 mi NE 47.2 mph 56.4 mph N/A Snow Heavy Snow
5:55 AM 3.6 °F -25.2 °F 0.7 °F 88% 29.45 in 0.2 mi NE 46.0 mph 55.2 mph N/A Snow Snow
6:42 AM 5.0 °F -22.9 °F 1.4 °F 85% 29.44 in 0.2 mi NE 44.9 mph 51.8 mph N/A Snow Heavy Snow
6:55 AM 4.3 °F -22.6 °F 1.9 °F 90% 29.45 in 0.2 mi NE 39.1 mph 49.5 mph N/A Snow Heavy Snow
7:42 AM 5.0 °F -21.9 °F 3.2 °F 92% 29.46 in 0.2 mi NE 40.3 mph 48.3 mph N/A Snow Heavy Snow
7:55 AM 5.0 °F -22.1 °F 2.5 °F 89% 29.46 in 0.2 mi NE 41.4 mph 50.6 mph N/A Snow Heavy Snow
8:12 AM 5.0 °F -22.4 °F 3.2 °F 92% 29.47 in 0.2 mi NE 42.6 mph 50.6 mph N/A Snow Heavy Snow
8:42 AM 5.0 °F -22.9 °F 3.2 °F 92% 29.44 in 0.2 mi NE 44.9 mph 52.9 mph N/A Snow Heavy Snow
8:55 AM 5.4 °F -21.6 °F 2.8 °F 89% 29.44 in 0.2 mi NE 41.4 mph 52.9 mph N/A Snow Heavy Snow
9:12 AM 5.0 °F -23.7 °F 3.2 °F 92% 29.44 in 0.2 mi NE 48.3 mph 54.1 mph N/A Snow Heavy Snow
9:27 AM 5.0 °F -23.7 °F 3.2 °F 92% 29.44 in 0.2 mi NE 48.3 mph 55.2 mph N/A Snow Heavy Snow
9:42 AM 5.0 °F -23.9 °F 3.2 °F 92% 29.44 in 0.2 mi NE 49.5 mph 56.4 mph N/A Snow Heavy Snow
9:55 AM 5.7 °F -22.9 °F 3.6 °F 91% 29.43 in 0.2 mi NE 49.5 mph 56.4 mph N/A Snow Heavy Snow
10:12 AM 5.0 °F -24.1 °F 3.2 °F 92% 29.44 in 0.2 mi NE 50.6 mph 56.4 mph N/A Snow Heavy Snow
10:55 AM 5.9 °F -21.4 °F 3.7 °F 91% 29.46 in 0.2 mi NE 43.7 mph 51.8 mph N/A Snow Heavy Snow
11:27 AM 6.8 °F -20.6 °F 5.0 °F 92% 29.46 in 0.2 mi NE 46.0 mph 54.1 mph N/A Snow Heavy Snow
11:42 AM 6.8 °F -20.4 °F 5.0 °F 92% 29.46 in 0.2 mi NE 44.9 mph 54.1 mph N/A Snow Heavy Snow
11:55 AM 5.9 °F -22.4 °F 3.9 °F 92% 29.46 in 0.2 mi NE 48.3 mph 56.4 mph N/A Snow Heavy Snow
12:27 PM 5.0 °F -23.2 °F 3.2 °F 92% 29.48 in 0.2 mi NE 46.0 mph 51.8 mph N/A Snow Heavy Snow
12:55 PM 5.7 °F -21.4 °F 3.2 °F 89% 29.49 in 0.2 mi NE 42.6 mph 52.9 mph N/A Snow Heavy Snow
1:12 PM 5.0 °F -23.9 °F 3.2 °F 92% 29.48 in 0.2 mi NE 49.5 mph 54.1 mph N/A Snow Heavy Snow
1:27 PM 5.0 °F -24.1 °F 3.2 °F 92% 29.48 in 0.5 mi NE 50.6 mph 57.5 mph N/A Snow Snow
1:55 PM 5.0 °F -24.1 °F 2.3 °F 89% 29.47 in 0.5 mi NE 50.6 mph 57.5 mph N/A Snow Light Snow
2:12 PM 5.0 °F -23.7 °F 1.4 °F 85% 29.48 in 0.2 mi NE 48.3 mph 56.4 mph N/A Snow Snow
2:27 PM 5.0 °F -22.1 °F 1.4 °F 85% 29.50 in 0.2 mi NE 41.4 mph 49.5 mph N/A Snow Heavy Snow
2:55 PM 4.1 °F -24.9 °F 1.4 °F 89% 29.49 in 0.2 mi NE 48.3 mph 54.1 mph N/A Snow Snow
3:13 PM 5.0 °F -22.9 °F 1.4 °F 85% 29.49 in 0.2 mi NE 44.9 mph 52.9 mph N/A Snow Light Snow
3:28 PM 3.2 °F -26.2 °F 1.4 °F 92% 29.50 in 0.5 mi NE 48.3 mph 56.4 mph N/A Snow Snow
3:43 PM 3.2 °F -26.7 °F 1.4 °F 92% 29.49 in 0.8 mi NE 50.6 mph 56.4 mph N/A Snow Light Snow
3:55 PM 3.7 °F -25.2 °F 0.9 °F 88% 29.50 in 0.8 mi NE 47.2 mph 55.2 mph N/A Snow Light Snow
4:13 PM 3.2 °F -25.4 °F 1.4 °F 92% 29.51 in 0.2 mi NE 44.9 mph 49.5 mph N/A Snow Snow
4:28 PM 3.2 °F -25.7 °F 1.4 °F 92% 29.49 in 0.5 mi NE 46.0 mph 51.8 mph N/A Snow Snow
4:43 PM 3.2 °F -24.6 °F 1.4 °F 92% 29.49 in 0.5 mi NE 41.4 mph 51.8 mph N/A Snow Light Snow
4:55 PM 3.0 °F -25.4 °F 0.5 °F 89% 29.50 in 0.2 mi NE 43.7 mph 50.6 mph N/A Snow Heavy Snow
4:58 PM 3.2 °F -24.6 °F 1.4 °F 92% 29.50 in 0.2 mi ENE 41.4 mph 49.5 mph N/A Snow Heavy Snow
5:43 PM 3.2 °F -23.5 °F -0.4 °F 85% 29.54 in 0.2 mi ENE 36.8 mph 47.2 mph N/A Snow Heavy Snow
5:55 PM 2.8 °F -24.6 °F 0.3 °F 89% 29.53 in 0.2 mi ENE 39.1 mph 44.9 mph N/A Snow Heavy Snow
6:28 PM 3.2 °F -22.2 °F 1.4 °F 92% 29.52 in 0.2 mi ENE 32.2 mph 42.6 mph N/A Snow Heavy Snow
6:43 PM 3.2 °F -21.5 °F 1.4 °F 92% 29.53 in 0.2 mi ENE 29.9 mph 40.3 mph N/A Snow Heavy Snow
6:55 PM 3.0 °F -21.0 °F 0.5 °F 89% 29.53 in 0.2 mi ENE 27.6 mph - N/A Snow Heavy Snow
6:58 PM 3.2 °F -21.5 °F 1.4 °F 92% 29.53 in 0.2 mi ENE 29.9 mph - N/A Snow Heavy Snow
7:13 PM 3.2 °F -20.3 °F 1.4 °F 92% 29.54 in 0.2 mi ENE 26.5 mph 34.5 mph N/A Snow Snow
7:55 PM 3.9 °F -19.8 °F 1.0 °F 88% 29.51 in 0.2 mi NE 27.6 mph 36.8 mph N/A Fog , Snow Light Snow
8:28 PM 5.0 °F -23.2 °F 1.4 °F 85% 29.46 in 0.2 mi East 46.0 mph 55.2 mph N/A Fog , Snow Heavy Snow
8:43 PM 5.0 °F -21.0 °F 1.4 °F 85% 29.48 in 0.2 mi NE 36.8 mph 48.3 mph N/A Fog , Snow Heavy Snow
8:55 PM 4.3 °F -22.0 °F 1.6 °F 89% 29.47 in 0.2 mi NE 36.8 mph 51.8 mph N/A Fog , Snow Snow
9:43 PM 5.0 °F -20.4 °F 1.4 °F 85% 29.46 in 0.2 mi ENE 34.5 mph 41.4 mph N/A Fog , Snow Heavy Snow
9:55 PM 4.8 °F -20.9 °F 1.2 °F 85% 29.46 in 0.5 mi ENE 35.7 mph 44.9 mph N/A Fog , Snow Snow
9:58 PM 5.0 °F -20.1 °F 1.4 °F 85% 29.45 in 0.5 mi NE 33.4 mph 44.9 mph N/A Fog , Snow Snow
10:13 PM 5.0 °F -20.7 °F 3.2 °F 92% 29.44 in 0.2 mi East 35.7 mph 47.2 mph N/A Fog , Snow Heavy Snow
10:28 PM 5.0 °F -23.7 °F 1.4 °F 85% 29.40 in 0.2 mi East 48.3 mph 54.1 mph N/A Fog , Snow Heavy Snow
10:43 PM 5.0 °F -24.3 °F 1.4 °F 85% 29.37 in 0.5 mi East 51.8 mph 58.7 mph N/A Snow Light Snow
10:55 PM 5.4 °F -23.6 °F 2.1 °F 86% 29.38 in 0.8 mi East 50.6 mph 61.0 mph N/A Snow Light Snow
11:28 PM 5.0 °F -22.4 °F 3.2 °F 92% 29.42 in 0.2 mi East 42.6 mph 50.6 mph N/A Snow Snow
11:43 PM 5.0 °F -20.7 °F 3.2 °F 92% 29.42 in 0.2 mi NE 35.7 mph 42.6 mph N/A Snow Snow
11:55 PM 5.0 °F -21.3 °F 2.7 °F 90% 29.42 in 0.2 mi NE 38.0 mph 43.7 mph N/A Snow Light Snow